カタログに戻る

STARLINK-37654

運用中通信SSO
NORAD 69141·PAYLOAD·🇺🇸 United States

打ち上げ May 20, 2026 から Vandenberg Space Force Base

Loading…

次のパス (今後24時間)

TLE

最新Source: CelesTrak SupGP

元期: Sep 15, 2026, 03:48 UTC

1 69141C 26110T   26258.15881944 -.00055453  00000+0 -17215-2 0  2583
2 69141  97.2849  93.3301 0001760  92.3884 137.5456 15.33465698    11

AllMySatでSTARLINK-37654をリアルタイム追跡

Download on the App Store